#timestamp,LO_Frequency,Hit,StdDev 
1700110815.3,286046998.8,N
1700110835.1,286047001.2,N
1700110855.9,286046998.2,N
1700110875.7,286046996.9,N
1700110895.5,286046999.3,N
1700110915.4,286046999.0,N
1700110935.2,286046998.2,N
1700110955.1,286047000.0,N
1700110956.0,286047000.0,N
1700110975.8,286047000.3,N
1700110995.6,286046999.8,N
1700111015.5,286047000.1,N
1700111035.3,286046999.8,N
1700111055.2,286047002.5,N
1700111075.9,286047000.2,N
1700111095.7,286047000.9,N
1700111115.6,286046998.5,N
1700111135.4,286046998.4,N
1700111155.3,286046998.9,N
1700111175.1,286046998.7,N
1700111176.0,286046998.7,N
1700111195.8,286046998.2,N
1700111215.7,286046998.3,N
1700111235.5,286046999.3,N
1700111255.3,286046998.7,N
1700111275.2,286046998.3,N
1700111295.0,286046998.4,N
1700111295.9,286046998.4,N
1700111315.8,286046998.3,N
1700111335.6,286046996.5,Y
1700111355.4,286046998.6,P
1700111375.3,286046999.3,N
1700111395.1,286046999.3,N
1700111415.9,286046998.4,Y
1700111435.7,286046998.2,P
1700111455.5,286046998.2,P
1700111475.4,286046998.3,P
1700111495.2,286046998.3,Y
1700111515.0,286047000.3,P
1700111515.9,286047000.3,N
1700111535.8,286047000.4,N
1700111555.6,286047002.4,N
1700111575.5,286047002.3,N
1700111595.3,286047002.8,N
1700111615.1,286047002.7,N
1700111635.9,286047000.9,N
1700111655.7,286047000.8,N
1700111675.5,286046999.2,N
1700111695.4,286046999.3,N
1700111715.2,286046999.4,N
1700111735.1,286046997.8,N
1700111736.0,286046997.8,N
1700111755.8,286046997.3,N
1700111775.6,286046997.5,N
1700111795.5,286046994.9,N
1700111815.3,286046995.4,N
1700111835.2,286046997.7,N
1700111855.9,286046994.9,N
1700111875.7,286046995.2,N
1700111895.6,286046998.0,N
1700111915.4,286046995.6,N
1700111935.2,286046995.2,N
1700111955.1,286046995.1,N
1700111956.0,286046995.1,N
1700111975.8,286046995.9,N
1700111995.7,286046995.7,N
1700112015.5,286046993.8,N
1700112035.3,286046994.5,N
1700112055.2,286046996.0,N
1700112075.0,286046993.3,N
1700112075.9,286046993.3,N
1700112095.8,286046993.8,N
1700112115.6,286046995.8,N
1700112135.4,286046995.6,N
1700112155.3,286046994.9,N
1700112175.1,286046995.8,N
1700112195.9,286046995.8,N
1700112215.7,286046993.7,Y
1700112235.5,286046996.5,P
1700112255.4,286046996.5,P
1700112275.2,286046997.9,P
1700112295.1,286046995.0,Y
1700112296.0,286046995.0,P
1700112315.8,286047001.1,N
1700112335.6,286047000.2,N
1700112355.5,286046999.7,N
1700112375.3,286046999.9,N
1700112395.2,286047000.8,N
1700112415.9,286046998.6,N
1700112435.7,286046998.1,N
1700112455.6,286046998.2,N
1700112475.4,286046998.1,N
1700112495.3,286046998.7,N
1700112515.1,286046998.2,N
1700112535.8,286046998.6,N
1700112555.7,286046998.4,N
1700112575.5,286046998.6,N
1700112595.3,286046999.4,N
1700112615.2,286046996.6,N
1700112635.0,286046999.5,N
1700112635.9,286046999.5,N
1700112655.8,286046999.0,N
1700112675.6,286046996.6,N
1700112695.4,286046999.1,N
1700112715.3,286046999.3,N
1700112735.1,286046996.7,N
1700112755.9,286046996.5,N
1700112775.7,286046996.6,N
1700112795.5,286046997.3,N
1700112815.4,286046997.8,N
1700112835.2,286046994.9,Y
1700112855.0,286046997.8,P
1700112855.9,286046997.8,P
1700112875.8,286046996.7,P
1700112895.6,286046995.3,Y
1700112915.5,286046998.4,P
1700112935.3,286046998.9,P
1700112955.1,286046998.4,P
1700112975.9,286047001.2,N
1700112995.7,286047000.8,N
1700113015.5,286046998.1,N
1700113035.4,286046999.3,N
1700113055.2,286046997.0,N
1700113075.1,286046999.3,N
1700113076.0,286046999.3,N
1700113095.8,286046998.3,N
1700113115.6,286046998.2,N
1700113135.5,286046998.7,N
1700113155.3,286047000.8,N
1700113175.1,286047000.3,N
1700113195.9,286047000.1,N
1700113215.7,286047000.2,N
1700113235.6,286047002.8,N
1700113255.4,286047002.3,N
1700113275.2,286047002.8,N
1700113295.1,286047000.7,N
1700113296.0,286047000.7,N
1700113315.8,286047001.1,N
1700113335.7,286047000.1,N
1700113355.5,286047001.1,N
1700113375.3,286046999.3,N
1700113395.2,286046996.9,N
1700113415.9,286046999.6,N
1700113435.7,286046998.9,N
1700113455.6,286046998.6,N
1700113475.4,286046999.0,N
1700113495.2,286046998.8,N
1700113515.1,286047001.1,N
1700113516.0,286047001.1,N
1700113535.8,286047011.9,Y
1700113555.7,286046998.1,P
1700113575.5,286046998.6,N
1700113595.3,286046998.2,N
1700113615.2,286046998.1,N
1700113635.0,286047000.8,N
1700113635.9,286047000.8,N
1700113655.8,286047000.8,N
1700113675.6,286046999.9,N
1700113695.4,286047011.9,Y
1700113715.3,286047002.7,P
1700113735.1,286047001.8,N
1700113755.9,286047002.1,N
1700113775.7,286047002.1,N
1700113795.5,286046999.7,N
1700113815.4,286046999.7,N
1700113835.2,286047000.2,N
1700113855.0,286046999.7,N
1700113855.9,286046999.7,N
1700113875.8,286047002.5,N
1700113895.6,286047000.1,N
1700113915.5,286047002.2,N
1700113935.3,286047002.0,N
1700113955.1,286047002.2,N
1700113975.9,286047001.8,N
1700113995.7,286047002.2,N
1700114015.6,286047002.4,N
1700114035.4,286047002.4,N
1700114055.2,286047000.1,N
1700114075.1,286047000.1,N
1700114076.0,286047000.1,N
1700114095.8,286047000.4,N
1700114115.7,286047000.1,N
1700114135.5,286047002.8,N
1700114155.3,286047002.3,N
1700114175.2,286047002.6,N
1700114195.9,286047002.6,N
1700114215.7,286047001.9,N
1700114235.6,286047002.4,N
1700114255.4,286047001.4,N
1700114275.2,286047002.0,N
1700114295.1,286047001.4,N
1700114296.0,286047001.4,N
1700114315.8,286047003.9,Y
1700114335.7,286047004.3,P
1700114355.5,286047001.4,N
1700114375.4,286047003.6,N
1700114395.2,286047003.7,N
